When you browse on this site, cookies collect data to enhance your experience and personalize the content and advertising you see.
Visit our Privacy Policy to learn more. By continuing to use the site, you agree to this use of cookies and data.
  • In United Kingdom
  • List of Countries
  • For 7 days
  • Water Temperature
  • Satellite Maps
  • Weather Map
  • Weather Widgets
  • user-avatar
    Login

    Hourly Weather Florianópolis

    Today, 22 January, Tuesday

    Time Temperature Precipitation Wind Pressure Humidity
    00:00 +25°C° 0 mm 3 mps 761 mmHg 95%
    01:00 +25°C° 0 mm 3 mps 761 mmHg 95%
    02:00 +24°C° 0 mm 3 mps 761 mmHg 95%
    03:00 +24°C° 0 mm 2 mps 761 mmHg 94%
    04:00 +24°C° 0 mm 2 mps 761 mmHg 94%
    05:00 +24°C° 0 mm 2 mps 761 mmHg 94%
    06:00 +23°C° 0 mm 2 mps 761 mmHg 94%
    07:00 +26°C° 0 mm 2 mps 762 mmHg 81%
    08:00 +29°C° 0 mm 2 mps 762 mmHg 69%
    09:00 +32°C° 0 mm 2 mps 762 mmHg 57%
    10:00 +32°C° 0 mm 2 mps 762 mmHg 56%
    11:00 +34°C° 0 mm 3 mps 762 mmHg 55%
    12:00 +34°C° 0 mm 3 mps 762 mmHg 55%
    13:00 +34°C° 0 mm 4 mps 761 mmHg 57%
    14:00 +33°C° 0 mm 4 mps 761 mmHg 60%
    15:00 +33°C° 0 mm 4 mps 761 mmHg 62%
    16:00 +32°C° 0 mm 4 mps 761 mmHg 69%
    17:00 +29°C° 0 mm 3 mps 761 mmHg 76%
    18:00 +28°C° 0 mm 3 mps 761 mmHg 84%
    19:00 +28°C° 0.1 mm 2 mps 761 mmHg 87%
    20:00 +27°C° 0.1 mm 2 mps 762 mmHg 90%
    21:00 +27°C° 0.1 mm 2 mps 762 mmHg 94%
    22:00 +26°C° 0.1 mm 2 mps 762 mmHg 95%
    23:00 +26°C° 0.1 mm 2 mps 762 mmHg 96%

    Tomorrow, 23 January, Wednesday

    Time Temperature Precipitation Wind Pressure Humidity
    00:00 +26°C° 0.1 mm 1 mps 762 mmHg 98%
    01:00 +26°C° 0.2 mm 1 mps 762 mmHg 98%
    02:00 +26°C° 0.2 mm 1 mps 761 mmHg 98%
    03:00 +26°C° 0.2 mm 1 mps 761 mmHg 99%
    04:00 +26°C° 0 mm 1 mps 761 mmHg 99%
    05:00 +25°C° 0 mm 2 mps 761 mmHg 99%
    06:00 +25°C° 0 mm 2 mps 761 mmHg 99%
    07:00 +27°C° 0 mm 2 mps 761 mmHg 89%
    08:00 +29°C° 0 mm 2 mps 761 mmHg 79%
    09:00 +32°C° 0 mm 2 mps 762 mmHg 69%
    10:00 +35°C° 0 mm 3 mps 761 mmHg 60%
    11:00 +37°C° 0 mm 3 mps 761 mmHg 52%
    12:00 +40°C° 0 mm 4 mps 761 mmHg 44%
    13:00 +37°C° 0.6 mm 4 mps 760 mmHg 56%
    14:00 +34°C° 0.6 mm 4 mps 760 mmHg 68%
    15:00 +32°C° 0.6 mm 4 mps 760 mmHg 80%
    16:00 +30°C° 1 mm 3 mps 760 mmHg 83%
    17:00 +30°C° 1 mm 3 mps 759 mmHg 85%
    18:00 +30°C° 1 mm 3 mps 759 mmHg 88%
    19:00 +29°C° 1 mm 3 mps 760 mmHg 90%
    20:00 +28°C° 1 mm 2 mps 760 mmHg 93%
    21:00 +27°C° 1 mm 2 mps 761 mmHg 95%
    22:00 +27°C° 0.8 mm 2 mps 761 mmHg 96%
    23:00 +27°C° 0.8 mm 2 mps 761 mmHg 97%

    Day after tomorrow, 24 January, Thursday

    Time Temperature Precipitation Wind Pressure Humidity
    00:00 +26°C° 0.8 mm 2 mps 761 mmHg 97%
    01:00 +26°C° 0.5 mm 1 mps 761 mmHg 98%
    02:00 +26°C° 0.5 mm 1 mps 761 mmHg 98%
    03:00 +26°C° 0.5 mm 1 mps 760 mmHg 99%
    04:00 +25°C° 0 mm 1 mps 761 mmHg 99%
    05:00 +25°C° 0 mm 1 mps 761 mmHg 99%
    06:00 +25°C° 0 mm 1 mps 761 mmHg 99%
    07:00 +27°C° 0.1 mm 1 mps 761 mmHg 91%
    08:00 +29°C° 0.1 mm 1 mps 762 mmHg 82%
    09:00 +32°C° 0.1 mm 1 mps 762 mmHg 74%
    10:00 +31°C° 0.4 mm 1 mps 762 mmHg 76%
    11:00 +31°C° 0.4 mm 2 mps 762 mmHg 78%
    12:00 +31°C° 0.4 mm 2 mps 762 mmHg 80%
    13:00 +31°C° 0.5 mm 3 mps 762 mmHg 83%
    14:00 +30°C° 0.5 mm 3 mps 761 mmHg 85%
    15:00 +30°C° 0.5 mm 3 mps 761 mmHg 87%
    16:00 +29°C° 0.2 mm 3 mps 761 mmHg 88%
    17:00 +29°C° 0.2 mm 3 mps 761 mmHg 89%
    18:00 +28°C° 0.2 mm 3 mps 761 mmHg 90%
    19:00 +27°C° 0.4 mm 3 mps 762 mmHg 92%
    20:00 +26°C° 0.4 mm 3 mps 762 mmHg 95%
    21:00 +25°C° 0.4 mm 3 mps 763 mmHg 98%
    22:00 +25°C° 1 mm 3 mps 763 mmHg 98%
    23:00 +25°C° 1 mm 2 mps 763 mmHg 98%

    25 January, Friday

    Time Temperature Precipitation Wind Pressure Humidity
    00:00 +25°C° 1 mm 2 mps 763 mmHg 98%
    01:00 +24°C° 0.3 mm 2 mps 763 mmHg 98%
    02:00 +24°C° 0.3 mm 1 mps 762 mmHg 98%
    03:00 +24°C° 0.3 mm 1 mps 761 mmHg 98%
    04:00 +24°C° 0.1 mm 1 mps 761 mmHg 98%
    05:00 +24°C° 0.1 mm 1 mps 761 mmHg 98%
    06:00 +24°C° 0.1 mm 1 mps 761 mmHg 99%
    07:00 +25°C° 0.3 mm 2 mps 762 mmHg 93%
    08:00 +27°C° 0.3 mm 2 mps 762 mmHg 88%
    09:00 +28°C° 0.3 mm 2 mps 763 mmHg 82%
    10:00 +29°C° 0.4 mm 3 mps 762 mmHg 76%
    11:00 +30°C° 0.4 mm 3 mps 762 mmHg 70%
    12:00 +31°C° 0.4 mm 3 mps 762 mmHg 64%
    13:00 +31°C° 0.2 mm 3 mps 762 mmHg 65%
    14:00 +32°C° 0.2 mm 4 mps 761 mmHg 65%
    15:00 +32°C° 0.2 mm 4 mps 760 mmHg 65%
    16:00 +31°C° 0.1 mm 3 mps 760 mmHg 69%
    17:00 +30°C° 0.1 mm 3 mps 760 mmHg 73%
    18:00 +29°C° 0.1 mm 3 mps 760 mmHg 76%
    19:00 +28°C° 0.1 mm 3 mps 761 mmHg 83%
    20:00 +27°C° 0.1 mm 2 mps 762 mmHg 89%
    21:00 +26°C° 0.1 mm 2 mps 762 mmHg 96%
    22:00 +25°C° 0.3 mm 2 mps 762 mmHg 97%
    23:00 +25°C° 0.3 mm 2 mps 762 mmHg 97%

    26 January, Saturday

    Time Temperature Precipitation Wind Pressure Humidity
    00:00 +25°C° 0.3 mm 2 mps 762 mmHg 98%
    01:00 +25°C° 0 mm 2 mps 761 mmHg 98%
    02:00 +24°C° 0 mm 1 mps 761 mmHg 99%
    03:00 +24°C° 0 mm 1 mps 760 mmHg 99%
    04:00 +24°C° 0.1 mm 1 mps 760 mmHg 99%
    05:00 +24°C° 0.1 mm 1 mps 761 mmHg 99%
    06:00 +24°C° 0.1 mm 1 mps 761 mmHg 99%
    07:00 +26°C° 0 mm 1 mps 761 mmHg 90%
    08:00 +28°C° 0 mm 1 mps 762 mmHg 81%
    09:00 +31°C° 0 mm 1 mps 763 mmHg 72%
    10:00 +32°C° 0 mm 2 mps 762 mmHg 65%
    11:00 +34°C° 0 mm 3 mps 762 mmHg 58%
    12:00 +35°C° 0 mm 4 mps 762 mmHg 51%
    13:00 +35°C° 0 mm 4 mps 762 mmHg 51%
    14:00 +35°C° 0 mm 4 mps 761 mmHg 50%
    15:00 +35°C° 0 mm 5 mps 761 mmHg 49%
    16:00 +34°C° 0 mm 5 mps 761 mmHg 56%
    17:00 +33°C° 0 mm 4 mps 761 mmHg 62%
    18:00 +32°C° 0 mm 4 mps 761 mmHg 68%
    19:00 +29°C° 0.1 mm 4 mps 761 mmHg 78%
    20:00 +28°C° 0.1 mm 4 mps 762 mmHg 87%
    21:00 +27°C° 0.1 mm 4 mps 763 mmHg 96%
    22:00 +27°C° 0.1 mm 4 mps 763 mmHg 97%
    23:00 +26°C° 0.1 mm 4 mps 763 mmHg 97%

    27 January, Sunday

    Time Temperature Precipitation Wind Pressure Humidity
    00:00 +26°C° 0.1 mm 4 mps 763 mmHg 97%
    01:00 +26°C° 0.1 mm 3 mps 763 mmHg 98%
    02:00 +26°C° 0.1 mm 3 mps 763 mmHg 98%
    03:00 +25°C° 0.1 mm 3 mps 762 mmHg 98%
    04:00 +25°C° 0.1 mm 3 mps 762 mmHg 98%
    05:00 +25°C° 0.1 mm 3 mps 762 mmHg 98%
    06:00 +25°C° 0.1 mm 3 mps 762 mmHg 98%
    07:00 +27°C° 0.1 mm 3 mps 762 mmHg 91%
    08:00 +28°C° 0.1 mm 4 mps 763 mmHg 85%
    09:00 +30°C° 0.1 mm 4 mps 763 mmHg 79%
    10:00 +32°C° 0.2 mm 4 mps 763 mmHg 74%
    11:00 +32°C° 0.2 mm 4 mps 763 mmHg 70%
    12:00 +33°C° 0.2 mm 4 mps 763 mmHg 65%
    13:00 +34°C° 0.2 mm 4 mps 762 mmHg 63%
    14:00 +34°C° 0.2 mm 4 mps 762 mmHg 60%
    15:00 +35°C° 0.2 mm 4 mps 761 mmHg 58%
    16:00 +34°C° 0 mm 4 mps 761 mmHg 63%
    17:00 +33°C° 0 mm 4 mps 761 mmHg 68%
    18:00 +32°C° 0 mm 4 mps 761 mmHg 73%
    19:00 +29°C° 0 mm 4 mps 762 mmHg 81%
    20:00 +28°C° 0 mm 3 mps 762 mmHg 89%
    21:00 +27°C° 0 mm 3 mps 763 mmHg 96%
    22:00 +27°C° 0.1 mm 3 mps 763 mmHg 97%
    23:00 +26°C° 0.1 mm 3 mps 763 mmHg 97%
    Show more